Wetbulb
60.32 61.47 61.37 61.33 61.61 62.15 62.46 63.57 64.40 65.22 65.14 65.85 66.22 66.69 67.10 67.42 68.04 68.36 68.65 68.40 68.11 68.21 68.54 68.08 67.83 68.15 67.10 67.95 69.44 69.45 67.40 66.52 64.32 65.85 68.27 70.57 68.43 68.79 70.61 70.75 68.83 69.72 69.28
57.98 57.57 58.44 57.37 59.35 61.46 62.43 63.23 64.49 64.09 64.82 65.45 65.71 65.26 64.52 65.04 65.95 65.04 64.72 64.45 64.71 64.72 65.31 65.93 65.53 65.34 65.88 67.66 66.70 67.34 67.78 67.55 66.09 62.75 64.19 67.19 66.07 66.74 66.78 68.60 68.49 68.15 69.12
55.33 56.84 58.00 57.40 58.39 59.19 61.41 62.19 62.72 63.48 64.12 65.07 64.69 63.80 62.94 62.73 62.73 62.58 61.73 61.48 61.55 62.31 61.93 60.96 60.82 62.69 63.59 64.73 65.64 66.31 67.70 68.30 67.64 62.96 60.86 64.11 64.63 65.56 65.89 66.36 66.54 67.70 68.35
55.53 55.82 56.71 57.79 57.26 58.31 60.33 60.85 60.26 62.32 63.09 63.60 63.65 62.92 62.06 61.04 59.79 59.49 59.56 59.69 59.95 58.52 58.69 58.38 58.84 58.77 59.86 61.58 63.19 64.10 64.52 65.34 67.09 66.53 64.28 62.37 63.50 66.96 66.09 65.15 65.05 66.32 67.07
52.58 54.72 55.77 58.07 58.17 58.07 58.83 59.76 61.03 61.20 62.40 62.50 62.26 62.05 61.19 59.21 57.93 59.12 59.06 59.03 58.73 58.53 58.73 58.20 58.68 57.53 56.39 56.64 57.53 59.71 61.56 61.82 64.00 65.19 64.58 60.89 61.60 63.94 62.83 65.94 64.89 67.11 66.76
51.12 52.71 55.17 55.28 55.33 57.52 57.82 58.77 60.07 60.81 61.03 61.39 61.19 60.68 59.71 57.81 50.13 50.22 56.84 59.10 59.00 58.29 57.93 57.87 58.14 56.51 55.85 52.79 53.41 54.13 57.51 62.07 62.09 64.53 65.32 61.68 61.53 62.64 64.05 64.28 64.53 64.33 63.91
50.38 51.41 53.63 55.19 55.38 55.94 56.72 56.89 57.90 59.71 61.11 60.37 60.09 59.35 59.02 59.41 46.45 46.79 49.73 59.27 59.03 58.64 58.51 57.96 57.09 55.95 55.22 57.42 54.27 53.06 53.93 51.90 54.03 61.77 62.76 64.12 65.50 66.83 65.96 64.33 64.90 66.11 65.00
49.05 49.95 51.39 53.08 54.12 56.24 56.15 55.66 56.62 57.89 58.48 58.97 59.04 58.81 58.33 58.15 46.65 45.00 46.63 58.55 58.91 58.79 58.47 58.24 57.66 57.41 57.12 56.55 57.19 57.73 59.02 59.90 61.98 63.10 62.45 64.31 66.72 69.94 68.88 67.56 67.25 66.69 66.43
47.87 49.17 50.19 51.21 52.68 54.51 55.17 56.12 56.49 55.78 55.77 56.49 57.35 57.79 57.46 58.22 45.88 44.46 47.66 56.61 57.57 57.91 57.78 57.96 57.50 57.25 50.54 46.30 56.06 56.47 57.74 58.89 58.45 52.52 50.71 51.45 49.82 50.55 60.32 65.42 64.17 63.62 63.64
46.90 48.13 49.72 50.75 51.38 51.95 53.46 55.13 56.49 56.24 55.96 55.67 55.34 56.25 53.92 56.75 46.93 43.69 47.05 55.67 56.20 56.35 57.73 57.44 48.48 52.47 46.28 44.64 54.42 55.76 56.19 57.83 61.40 61.85 61.75 57.51 51.60 56.37 50.55 65.79 65.30 63.82 64.52
45.45 46.03 47.10 49.39 50.19 51.43 52.47 53.99 54.35 53.84 53.60 54.13 54.37 55.99 56.50 55.44 55.36 43.61 42.90 55.13 55.44 55.93 55.73 55.68 56.64 45.65 44.13 42.66 42.63 53.77 55.32 57.72 56.93 59.16 59.75 61.62 61.39 61.97 61.86 63.89 66.89 67.38 65.24
44.84 45.50 46.62 48.11 48.79 49.62 50.49 51.35 52.14 52.09 51.56 52.26 52.76 53.13 54.01 55.76 48.37 44.28 42.01 43.62 50.38 55.59 55.07 56.04 56.27 45.32 42.57 41.81 44.06 45.62 43.84 45.75 54.02 56.39 59.72 59.97 60.76 60.78 61.37 63.92 66.35 67.33 68.25
43.98 45.15 45.39 46.05 47.09 48.33 48.76 49.36 49.51 50.63 50.32 50.42 50.75 50.55 51.23 53.12 54.04 44.43 41.85 41.35 42.72 52.74 55.86 52.86 46.43 42.66 40.53 43.85 42.78 41.87 42.32 55.26 56.53 58.90 59.28 59.98 61.66 63.22 63.72 64.06 64.70 65.28 65.94
42.10 43.03 44.08 43.93 44.16 45.89 47.20 48.19 48.21 48.48 48.83 49.27 49.49 49.82 50.73 51.56 52.36 53.33 51.99 49.73 43.76 47.56 49.87 53.02 50.02 47.08 44.48 47.63 49.32 53.04 56.50 57.24 58.66 59.66 59.39 61.22 61.50 60.89 61.43 61.63 61.29 61.89 62.11
41.36 41.77 42.39 42.98 43.00 42.99 44.12 45.91 47.03 49.43 48.95 48.93 49.62 49.87 49.50 50.08 51.16 48.90 49.67 52.58 53.02 50.86 51.94 54.76 54.35 54.37 54.78 56.16 56.38 55.48 57.21 57.09 59.42 59.62 59.00 58.76 59.87 60.61 59.84 61.42 60.77 62.23 61.48
39.70 41.03 41.84 42.45 43.12 43.26 43.33 43.78 42.15 42.49 41.59 40.88 40.93 45.58 50.01 44.77 41.74 42.63 42.64 41.93 42.44 42.16 50.97 52.92 53.33 54.06 54.63 54.97 56.29 55.78 56.70 56.53 59.38 59.57 59.44 59.11 58.29 59.42 60.37 61.43 62.59 62.00 60.57
39.92 40.72 42.06 42.03 43.15 43.33 44.25 44.74 44.21 44.57 41.02 40.24 39.39 39.83 40.34 43.10 40.09 41.09 41.41 40.59 40.33 41.85 51.25 52.28 53.02 54.33 54.87 55.51 56.61 56.23 57.21 58.67 59.37 59.27 59.19 60.11 60.04 60.10 59.07 61.00 61.31 61.56 60.95
40.51 39.88 40.82 41.10 41.69 42.62 43.27 43.99 44.55 44.13 44.27 45.29 40.75 41.69 39.42 39.47 39.18 39.61 40.14 40.05 47.50 42.90 50.95 51.13 52.41 54.91 55.21 55.83 57.35 56.66 58.01 59.43 58.78 58.67 59.34 60.08 60.25 59.93 59.29 58.28 59.32 60.42 59.31
39.49 40.08 40.88 41.32 42.05 41.76 41.89 41.95 42.52 43.13 43.70 44.18 45.95 40.76 40.20 38.44 38.73 38.55 38.06 48.96 48.17 49.89 49.52 51.12 52.05 54.59 55.55 57.04 58.63 58.94 58.74 59.37 58.78 58.77 59.49 60.96 60.36 59.22 58.23 58.30 57.36 48.28 52.87
38.43 37.50 38.20 39.72 40.00 40.84 41.49 41.56 42.17 43.24 43.76 43.84 44.18 45.34 45.54 41.94 43.11 44.02 43.97 46.94 49.87 51.30 51.66 51.72 53.17 54.86 56.45 56.92 59.07 58.94 58.83 58.06 58.94 59.46 60.87 61.06 60.39 60.14 58.33 58.28 59.99 58.27 60.04
39.02 39.78 37.30 39.82 39.82 40.01 40.50 41.54 42.55 43.12 43.09 44.37 45.30 45.74 40.92 45.64 46.04 45.90 46.64 48.89 50.82 50.38 51.54 53.34 54.99 56.20 57.14 58.48 59.33 58.50 59.13 58.98 59.84 61.83 61.70 61.48 61.44 60.69 60.93 61.14 60.88 60.98 60.53
37.49 38.12 38.90 39.54 41.15 42.65 44.20 41.42 41.29 43.96 44.45 44.87 45.92 45.22 36.78 46.67 48.33 49.28 50.27 50.80 51.16 52.22 53.68 54.92 55.68 56.42 58.53 59.46 58.96 60.20 60.10 60.01 61.97 62.29 61.29 61.08 61.09 61.29 61.19 61.21 60.67 59.55 58.88
38.02 38.88 40.50 43.76 48.35 43.85 44.93 43.77 44.60 45.69 45.58 46.62 47.30 45.14 44.84 47.34 50.06 50.28 50.91 51.91 52.72 53.79 55.21 55.94 55.27 58.95 59.96 60.55 62.39 62.28 61.83 62.15 62.61 61.87 61.43 61.00 60.64 60.81 61.31 61.21 60.77 58.96 58.83
42.09 45.33 50.25 49.04 50.40 49.65 48.53 47.87 47.32 44.39 47.15 48.01 48.87 48.35 48.69 49.40 51.01 51.51 51.60 53.29 54.04 55.00 55.65 58.86 59.51 59.58 61.12 62.59 62.90 62.63 63.80 63.53 63.11 63.13 62.66 61.52 61.12 58.34 61.56 60.58 59.00 56.34 50.92
53.72 52.65 52.00 52.15 52.26 50.91 52.08 49.73 49.37 49.95 49.95 50.02 51.31 49.80 51.83 52.65 52.18 53.20 52.89 55.51 57.27 58.00 58.53 59.09 59.75 61.16 62.02 61.37 62.54 63.37 50.13 40.76 60.73 53.39 63.01 62.33 61.98 61.09 57.94 55.21 52.62 50.12 47.59
50.07 49.13 48.36 47.77 48.09 49.17 49.42 49.19 49.61 50.46 50.93 51.97 52.67 52.35 50.86 50.33 50.50 51.39 53.10 52.94 53.48 55.77 57.37 59.16 60.69 60.54 61.52 63.09 61.49 45.07 38.76 40.40 51.07 45.33 59.06 58.75 57.44 56.14 55.59 51.49 47.09 43.72 42.64
MSLP
1002.30 1002.29 1002.52 1002.78 1003.06 1003.58 1003.73 1003.65 1003.85 1004.29 1004.43 1004.66 1005.07 1005.44 1005.68 1006.01 1006.35 1006.59 1006.68 1006.77 1007.00 1007.51 1008.11 1008.44 1008.62 1009.06 1009.49 1009.53 1009.77 1009.58 1009.37 1009.07 1008.26 1008.31 1008.47 1007.87 1007.87 1007.50 1006.86 1006.48 1006.84 1006.80 1006.43
1002.74 1002.33 1002.27 1002.83 1003.37 1003.61 1003.47 1003.49 1003.71 1003.83 1003.98 1004.26 1004.73 1005.09 1005.61 1005.85 1006.23 1006.33 1006.50 1006.70 1006.91 1007.34 1007.76 1008.13 1008.25 1008.65 1008.81 1008.90 1008.56 1008.15 1008.28 1008.28 1007.84 1008.13 1007.85 1007.75 1007.47 1007.07 1006.18 1006.49 1006.68 1006.27 1006.39
1002.94 1002.25 1001.95 1002.31 1002.88 1003.25 1003.12 1003.16 1003.76 1003.69 1003.81 1004.03 1004.40 1004.85 1005.27 1005.67 1006.00 1006.35 1006.46 1006.63 1006.89 1007.16 1007.53 1007.87 1008.01 1008.03 1007.67 1007.37 1007.57 1007.65 1007.65 1007.74 1007.65 1007.82 1007.46 1007.41 1006.99 1006.82 1005.99 1006.18 1006.62 1006.74 1006.33
1003.14 1002.61 1002.40 1002.02 1002.51 1002.45 1002.62 1002.40 1003.03 1003.60 1003.42 1003.67 1003.95 1004.36 1004.87 1005.45 1005.74 1006.15 1006.43 1006.68 1006.93 1007.13 1007.30 1007.32 1007.25 1007.29 1007.26 1007.31 1007.20 1007.39 1007.37 1007.42 1007.27 1007.06 1006.92 1006.92 1006.41 1006.40 1006.63 1006.50 1006.45 1006.48 1006.11
1002.92 1002.33 1002.18 1002.15 1001.59 1002.02 1001.97 1002.01 1002.26 1002.92 1002.97 1002.71 1003.34 1003.90 1004.43 1004.95 1005.21 1005.70 1006.01 1006.37 1006.75 1006.88 1006.95 1006.91 1006.98 1007.11 1007.35 1007.44 1007.38 1007.16 1007.21 1007.09 1006.59 1006.70 1006.39 1006.21 1005.51 1005.95 1006.10 1005.87 1005.80 1005.33 1005.54
1003.05 1002.31 1001.89 1001.56 1001.14 1001.10 1001.18 1001.33 1001.83 1001.93 1002.06 1002.49 1002.69 1003.13 1003.81 1004.11 1004.57 1005.18 1005.47 1005.76 1006.04 1006.23 1006.44 1006.66 1006.93 1007.10 1007.02 1007.11 1007.02 1006.99 1007.04 1007.10 1006.51 1006.00 1005.79 1005.71 1004.89 1004.89 1005.45 1005.30 1005.33 1004.96 1004.66
1002.59 1002.19 1001.72 1001.04 1000.67 1000.58 1000.71 1001.06 1000.97 1001.18 1001.42 1001.75 1002.22 1002.60 1003.00 1003.52 1004.01 1004.96 1005.23 1005.37 1005.64 1005.80 1006.02 1006.22 1006.39 1006.33 1006.82 1006.56 1006.45 1006.42 1006.24 1006.47 1006.32 1005.97 1005.51 1004.93 1004.52 1004.45 1004.86 1004.89 1004.61 1004.34 1003.82
1002.03 1001.55 1001.20 1000.95 1000.42 1000.19 1000.29 1000.29 1000.52 1000.73 1000.89 1001.11 1001.65 1002.06 1002.46 1002.76 1003.48 1004.23 1005.13 1005.12 1005.19 1005.34 1005.55 1005.78 1005.97 1006.09 1006.15 1006.24 1005.95 1005.66 1005.18 1005.01 1005.05 1004.67 1004.76 1004.49 1004.10 1003.78 1003.86 1003.95 1004.01 1004.11 1004.30
1001.35 1000.99 1000.65 1000.28 1000.03 999.83 999.65 999.69 999.94 1000.20 1000.48 1000.74 1001.18 1001.49 1001.94 1002.05 1002.76 1003.61 1004.31 1004.59 1004.59 1004.68 1004.91 1005.27 1005.49 1005.51 1005.55 1005.73 1005.85 1005.21 1004.67 1004.26 1004.31 1003.83 1003.65 1003.60 1003.34 1003.27 1003.25 1003.76 1003.61 1003.78 1003.53
1000.55 1000.34 1000.12 999.82 999.55 999.35 999.29 999.35 999.41 999.74 999.87 1000.21 1000.57 1000.71 1001.04 1001.56 1001.87 1002.87 1003.66 1003.44 1003.91 1003.98 1004.14 1004.54 1004.94 1005.02 1005.03 1005.24 1005.56 1005.01 1004.25 1003.94 1003.48 1003.04 1003.10 1002.84 1002.77 1002.77 1002.85 1002.96 1003.04 1002.84 1002.90
1000.11 999.79 999.54 999.31 999.17 999.12 999.03 998.96 999.04 999.18 999.31 999.43 999.87 1000.00 1000.43 1000.76 1001.09 1002.25 1002.95 1002.83 1002.94 1003.13 1003.15 1003.35 1003.73 1004.17 1004.65 1004.85 1005.04 1004.76 1004.12 1003.53 1003.11 1002.94 1002.67 1002.24 1002.21 1002.21 1002.57 1002.66 1002.74 1002.46 1002.28
998.91 998.59 998.29 998.30 998.31 998.23 998.25 998.35 998.39 998.52 998.62 998.74 999.15 999.37 999.67 999.97 1000.76 1001.52 1002.05 1002.33 1002.16 1002.36 1002.26 1002.35 1002.65 1003.29 1003.76 1004.06 1004.31 1004.09 1003.93 1003.93 1003.33 1002.56 1001.88 1001.54 1001.53 1001.77 1002.13 1002.41 1002.45 1002.62 1002.59
997.65 997.34 997.18 997.40 997.45 997.39 997.37 997.33 997.43 997.61 997.55 997.61 997.92 998.29 998.56 998.92 999.46 1000.68 1001.23 1001.58 1001.85 1001.94 1001.57 1001.55 1001.89 1002.57 1003.17 1003.46 1003.19 1003.16 1003.09 1002.62 1001.90 1001.24 1000.91 1001.03 1001.25 1001.58 1001.99 1002.46 1002.53 1002.89 1003.13
996.79 996.53 996.46 996.56 996.58 996.67 996.53 996.31 996.35 996.23 996.33 996.58 996.74 996.97 997.45 997.95 998.45 999.05 999.97 1000.73 1001.20 1001.47 1001.26 1001.25 1001.55 1002.03 1002.25 1002.20 1002.27 1001.96 1001.71 1001.45 1001.01 1000.60 1000.68 1000.80 1001.21 1001.58 1001.97 1002.36 1002.65 1002.99 1003.00
995.75 995.57 995.48 995.50 995.52 995.48 995.57 995.54 995.31 995.22 995.27 995.28 995.53 996.11 996.54 996.79 997.15 997.80 998.61 998.92 999.30 999.61 1000.15 1000.29 1000.79 1001.01 1000.78 1000.70 1000.85 1000.91 1000.72 1000.57 1000.30 1000.35 1000.61 1000.85 1000.79 1001.25 1002.01 1002.31 1002.66 1002.68 1002.41
994.55 994.32 994.30 994.29 994.23 994.19 994.17 994.17 994.31 994.47 994.55 994.87 995.19 995.55 995.82 996.45 996.80 997.47 998.41 998.83 998.83 999.22 999.88 999.29 999.31 999.53 999.52 999.43 999.74 999.95 1000.03 999.90 999.91 1000.04 1000.29 1000.72 1000.98 1000.98 1001.71 1002.12 1002.27 1002.18 1002.37
993.51 993.53 993.31 993.15 993.00 992.96 992.95 992.97 992.99 993.31 993.65 994.20 994.64 995.22 995.74 996.10 996.81 997.28 997.60 998.07 998.62 999.49 998.93 998.49 998.35 998.37 998.38 998.58 998.89 999.24 999.29 999.38 999.47 999.76 1000.09 1000.17 1000.66 1000.88 1001.60 1001.75 1001.80 1001.92 1002.27
992.59 992.52 992.36 992.04 991.88 991.78 991.73 991.81 992.00 992.26 992.54 993.00 993.65 994.18 994.71 995.37 996.17 996.81 997.32 998.11 998.93 999.47 998.30 997.89 997.47 997.41 997.61 997.87 998.15 998.56 998.78 998.85 999.24 999.61 999.81 1000.15 1000.36 1000.74 1001.23 1001.71 1001.84 1002.03 1002.62
991.65 991.31 990.96 990.71 990.45 990.45 990.59 990.93 991.18 991.33 991.58 991.93 992.41 993.10 993.77 994.45 995.33 996.08 996.73 996.92 997.31 997.39 997.61 997.41 997.21 996.80 997.01 997.26 997.45 997.80 998.09 998.53 999.08 999.25 999.49 999.57 1000.09 1000.49 1000.91 1001.57 1002.19 1002.38 1002.63
990.02 989.71 989.91 989.33 988.97 988.81 988.86 989.15 989.50 989.85 990.18 990.71 991.30 991.81 992.63 993.84 994.69 995.17 995.89 996.13 996.11 995.92 996.15 996.21 996.32 996.40 996.52 996.65 996.82 997.31 997.67 998.25 998.67 998.79 998.87 999.30 999.93 1000.29 1000.90 1001.51 1001.80 1002.12 1002.29
988.95 988.73 988.29 987.89 987.34 986.97 986.91 987.15 987.71 988.33 989.05 989.51 990.05 990.73 991.47 992.14 992.61 993.45 994.34 994.60 994.77 995.01 995.22 995.12 995.12 995.43 995.67 995.91 996.17 996.62 997.17 997.79 997.95 997.96 998.45 998.92 999.47 999.87 1000.31 1000.91 1001.38 1001.90 1002.39
988.09 987.53 986.91 986.37 985.70 984.91 984.05 984.97 986.42 987.22 988.03 988.79 989.47 990.17 990.98 991.36 991.38 991.79 992.52 993.11 993.70 994.18 994.55 994.59 994.67 994.79 994.76 995.08 995.49 996.01 996.67 997.21 997.28 997.60 998.10 998.78 999.32 999.75 1000.22 1000.74 1001.38 1002.25 1002.96
986.92 986.51 985.90 985.25 984.68 984.26 984.23 984.98 985.93 986.62 987.54 988.28 989.01 989.81 990.54 990.83 990.67 991.18 991.81 992.39 993.00 993.42 993.75 994.05 994.35 994.00 994.20 994.66 995.02 995.76 996.26 996.47 996.81 997.43 997.81 998.61 998.97 999.77 1000.21 1000.89 1001.64 1002.75 1003.23
985.90 985.16 984.84 984.96 984.83 984.77 984.92 985.42 986.19 986.90 987.51 988.14 988.68 989.38 989.96 990.25 990.43 990.94 991.54 991.87 992.09 992.50 992.78 992.92 992.96 993.37 993.82 994.40 995.15 995.68 996.00 996.47 997.06 997.41 997.95 998.15 998.91 1000.13 1000.69 1001.52 1002.60 1003.54 1004.39
985.37 985.32 985.23 985.20 985.18 985.56 985.63 985.99 986.41 986.89 987.35 987.84 988.37 989.15 989.53 989.74 990.24 990.49 990.95 991.21 991.18 991.39 991.69 992.30 992.88 993.35 993.90 994.53 995.00 995.32 996.24 996.82 997.07 997.78 997.97 998.53 999.57 1000.66 1001.65 1002.67 1003.63 1004.44 1005.24
986.68 986.50 986.47 986.55 986.55 986.64 986.81 987.02 987.20 987.62 987.89 988.30 988.54 989.03 989.63 989.78 990.17 990.29 990.48 990.88 991.26 991.61 992.07 992.52 993.03 993.58 994.09 994.53 995.31 996.17 996.97 997.53 997.92 998.20 999.05 999.98 1000.93 1001.71 1002.51 1003.55 1004.42 1005.21 1006.16
Wind_Speed
7 6 5 5 6 8 9 11 12 11 11 10 9 8 8 8 6 7 7 7 8 8 9 9 10 10 8 8 10 11 10 8 8 10 11 8 4 8 7 5 5 9 6
9 7 8 5 6 8 9 6 7 11 11 11 11 10 9 9 7 7 7 7 8 9 9 9 9 7 9 9 8 7 8 7 6 9 4 9 7 4 1 6 6 5 8
8 13 5 7 6 8 9 8 8 8 11 10 11 11 10 10 10 8 8 8 8 7 7 7 7 7 6 5 5 5 6 7 8 5 6 3 5 3 3 3 6 9 6
11 8 11 10 12 14 12 9 12 12 12 12 12 13 12 11 10 9 9 8 7 6 4 3 1 3 5 7 7 8 8 7 9 10 6 5 4 5 5 7 7 7 7
12 13 11 12 9 12 11 12 12 12 13 14 14 14 13 10 9 10 9 9 9 7 5 3 2 5 7 7 8 9 10 10 9 9 8 4 4 5 6 6 8 7 8
13 14 14 10 8 11 12 14 15 17 14 14 16 16 14 10 12 13 10 8 8 6 5 4 4 5 7 9 10 13 11 12 13 10 9 8 10 8 7 6 9 7 7
15 13 13 13 10 10 10 12 14 15 14 16 16 15 15 14 13 14 14 10 9 8 7 6 5 4 6 9 9 12 12 16 18 13 14 11 13 10 9 9 12 9 6
17 16 14 12 12 12 9 10 11 11 13 14 15 15 14 13 13 16 12 11 10 10 10 9 7 8 9 9 11 12 13 13 12 10 12 14 13 13 11 12 11 8 1
17 16 15 14 13 12 12 10 8 9 10 12 13 16 17 15 15 15 15 12 12 12 11 11 10 10 11 9 11 13 15 12 9 11 13 15 11 13 9 6 6 7 7
17 16 16 16 14 14 12 10 8 8 9 9 11 12 14 15 11 15 15 11 12 10 12 12 11 14 10 10 11 13 13 10 12 13 8 8 8 10 9 11 7 10 5
20 21 20 17 15 14 13 12 10 9 8 9 10 9 11 12 12 15 18 13 11 11 10 10 10 13 15 14 12 10 13 12 14 13 11 7 4 6 7 6 6 8 6
19 20 18 16 14 13 14 13 13 12 12 11 12 11 10 11 13 14 16 18 13 11 11 10 11 11 13 13 9 12 12 12 11 10 8 5 5 4 6 6 6 4 0
20 19 16 15 16 17 17 16 13 14 13 13 13 12 12 11 11 15 16 19 18 13 11 12 10 8 6 8 16 16 13 9 8 8 6 5 4 5 7 6 6 5 5
16 14 13 12 12 12 12 14 14 14 14 13 14 14 12 12 12 11 11 11 14 14 12 11 10 8 9 12 10 9 10 8 7 5 5 5 6 6 6 5 6 6 6
15 14 14 11 13 13 13 13 14 15 15 14 14 14 13 14 14 13 12 12 12 14 14 12 10 9 10 9 8 8 8 6 5 4 5 5 6 7 6 6 6 7 6
15 12 11 11 11 11 12 12 22 19 14 16 14 12 12 11 6 16 16 16 13 12 12 12 12 11 12 9 9 7 7 7 5 5 6 6 5 7 7 6 7 6 4
14 13 10 12 11 11 11 12 12 12 20 17 17 18 15 11 14 18 18 15 14 12 12 13 13 12 11 9 9 7 7 6 5 6 7 8 8 8 9 8 6 5 5
14 18 12 11 11 11 11 11 11 11 11 10 16 18 18 18 14 18 19 13 8 6 11 14 14 12 11 10 9 7 7 6 6 6 7 8 9 10 9 7 6 5 6
10 10 11 11 12 13 12 12 11 12 11 10 8 10 15 18 16 16 17 12 11 11 11 13 12 12 10 9 9 7 8 8 7 7 6 8 9 9 9 7 5 3 8
12 21 17 12 11 12 12 13 12 12 12 11 10 10 8 10 10 10 9 9 12 11 9 12 11 11 10 10 8 7 9 9 8 7 9 9 9 9 9 9 9 7 6
9 9 11 11 11 12 11 13 12 12 11 10 10 10 11 12 13 11 10 13 15 10 7 8 10 10 10 9 7 9 10 9 9 11 11 10 10 9 9 9 8 8 6
8 9 9 9 9 11 11 13 12 10 12 9 8 8 13 10 11 14 15 13 12 11 11 11 10 10 8 9 10 11 10 9 11 11 11 11 10 10 9 9 9 7 7
8 9 8 7 1 5 9 10 10 10 10 9 8 7 8 8 11 12 13 12 10 11 11 10 10 8 9 9 10 10 10 12 12 12 12 11 10 10 9 9 9 8 7
7 7 6 4 5 9 10 12 10 11 11 9 10 10 8 8 10 12 10 11 9 9 10 9 9 11 10 10 8 7 10 11 11 12 14 12 11 9 9 8 9 10 10
8 8 9 9 7 7 10 10 10 11 12 11 9 8 9 7 7 8 7 9 9 7 9 8 8 15 16 15 14 15 11 9 13 10 11 13 12 13 12 10 11 11 13
10 11 10 9 9 9 9 9 8 8 6 6 6 5 6 6 6 7 8 9 7 8 8 8 12 14 16 15 17 13 11 10 10 12 12 12 12 11 11 14 17 11 13
Wind_Direction
231 214 227 217 188 189 190 183 178 174 175 179 189 193 198 199 191 184 182 174 194 197 206 220 223 222 226 227 231 230 237 229 259 278 272 264 253 247 252 262 260 252 260
283 233 227 203 217 226 207 190 194 179 177 179 183 188 194 198 192 198 190 194 194 194 198 203 215 214 223 219 229 248 248 242 233 260 277 274 259 243 304 285 268 276 256
307 279 220 187 207 233 233 184 211 209 185 181 181 194 197 193 194 208 215 207 207 206 201 211 225 233 253 276 280 279 262 259 239 240 257 270 286 313 324 324 276 254 245
308 285 266 222 222 222 232 205 184 226 198 185 194 196 198 203 201 200 203 207 201 190 183 195 263 284 281 282 277 276 278 277 271 252 233 245 249 277 263 262 242 225 217
325 314 283 268 236 241 219 210 211 209 213 194 195 202 198 202 203 201 197 194 194 193 187 212 273 327 312 283 282 272 274 268 261 263 238 249 260 256 246 262 250 234 214
308 307 301 284 268 253 245 226 221 217 210 210 200 202 201 201 192 194 195 201 207 216 224 229 263 266 277 267 256 254 259 266 263 266 253 235 258 264 253 248 246 215 218
298 293 293 291 278 258 241 230 226 218 208 207 210 206 205 215 174 196 195 198 205 215 227 242 264 283 288 299 289 254 243 229 237 254 261 251 243 231 234 232 233 226 222
284 287 283 279 278 263 247 227 221 223 220 215 216 214 216 213 185 188 199 217 211 217 226 234 250 271 282 287 301 289 278 269 261 236 232 254 262 248 222 237 234 225 193
270 270 275 277 272 264 258 244 217 207 216 222 222 216 219 223 190 201 182 215 223 223 227 233 239 255 269 257 284 290 283 281 276 255 262 266 263 241 211 181 196 198 214
272 274 272 271 268 264 259 240 218 208 205 211 218 217 219 228 201 204 198 218 226 229 229 235 220 247 261 262 271 286 286 283 289 301 281 260 239 236 209 204 199 216 203
273 266 262 258 258 256 255 244 226 218 229 218 225 219 223 216 219 198 194 217 230 228 235 230 238 212 235 248 245 269 267 289 295 294 286 248 205 181 191 202 216 245 203
270 270 260 254 250 251 244 244 237 233 232 231 229 232 226 225 220 200 196 205 213 235 241 240 242 215 225 242 250 244 254 280 273 268 241 208 197 181 173 175 186 207 167
269 261 252 252 256 247 242 242 236 233 233 228 227 226 233 227 224 209 197 201 215 225 240 236 236 218 244 268 249 247 256 261 267 235 210 200 161 146 142 151 140 144 142
264 261 260 261 251 245 251 242 236 235 230 230 231 232 229 232 228 229 212 215 221 214 231 234 240 259 275 278 290 267 258 256 247 217 199 151 143 140 140 136 137 158 149
261 258 253 246 244 236 234 238 243 239 233 228 229 230 230 233 231 211 219 222 218 212 210 226 233 239 248 252 258 258 254 247 203 163 156 158 136 132 139 148 163 168 156
255 249 246 243 236 234 232 232 224 235 221 227 243 243 234 239 187 170 205 224 203 182 206 218 229 239 245 252 255 257 242 217 190 171 159 152 156 143 152 161 166 162 151
254 257 253 243 240 237 234 230 230 221 221 218 216 216 221 251 175 184 198 207 202 184 222 218 231 235 240 242 247 237 230 194 173 164 174 161 160 152 161 167 165 152 171
258 253 252 249 248 246 241 234 227 226 223 215 221 219 217 216 191 184 194 190 194 224 231 233 236 232 235 234 236 227 206 160 170 163 166 161 166 160 160 155 161 161 134
267 259 253 253 245 234 228 228 230 230 227 222 219 194 212 198 191 187 177 204 209 219 214 231 231 233 224 229 229 203 185 170 174 162 171 165 157 159 150 147 147 180 140
252 249 248 250 247 239 231 225 222 217 216 213 213 209 184 170 192 193 200 213 224 222 220 209 222 226 230 229 224 181 175 165 172 167 171 157 157 153 154 155 166 151 175
263 265 256 258 253 248 236 226 215 209 207 207 202 194 174 185 193 189 196 205 217 216 221 233 221 226 231 226 181 163 164 166 172 171 159 152 151 151 150 157 153 161 132
263 261 263 261 260 251 231 190 187 199 188 189 187 175 165 192 195 195 202 205 214 216 223 227 231 235 218 169 157 164 157 169 170 158 149 147 147 139 143 147 139 134 138
264 267 264 263 209 72 86 122 152 149 162 165 155 143 164 185 192 192 197 202 204 213 217 222 235 182 157 156 164 158 163 170 158 152 148 144 141 152 149 143 133 137 136
269 269 157 155 96 95 103 113 118 129 137 148 153 160 168 174 177 182 190 201 203 211 213 186 155 147 144 142 144 157 162 153 152 151 148 143 134 149 137 121 113 108 96
42 47 49 53 88 98 101 114 129 140 147 156 144 159 172 163 169 184 203 197 174 142 136 135 139 148 151 149 162 150 118 133 145 142 140 131 130 129 120 112 111 102 104
37 42 46 49 54 62 70 75 77 81 88 114 131 118 108 98 107 107 106 106 109 103 111 130 137 141 148 145 133 115 107 108 114 100 109 117 120 116 114 112 106 99 100